Weather History for New York, NY

Change the Weather History Date:

Saturday, October 29, 2011

  Actual Average Record
Temperature  
Mean Temperature 40 °F 54 °F  
Max Temperature 46 °F 61 °F 77 °F (1946)
Min Temperature 33 °F 47 °F 31 °F (1941)
Degree Days  
Heating Degree Days 25 11  
Month to date heating degree days 181 213  
Since 1 July heating degree days 200 248  
Cooling Degree Days 0 0  
Month to date cooling degree days 24 20  
Year to date cooling degree days 1375 1210  
Moisture  
Dew Point 33 °F    
Average Humidity 75    
Maximum Humidity 96    
Minimum Humidity 53    
Precipitation  
Precipitation 1.77 in 0.11 in 2.45 in (1973)
Month to date precipitation 4.55 3.55  
Year to date precipitation 58.56 37.53  
Snow  
Snow 1.70 in 0.00 in 1.70 in (2011)
Month to date snowfall 1.7 0.0  
Since 1 July snowfall 1.7 0.0  
Snow Depth 0.00 in    
Sea Level Pressure  
Sea Level Pressure 30.00 in    
Wind  
Wind Speed 16 mph (NNE)    
Max Wind Speed 29 mph    
Max Gust Speed 37 mph    
Visibility 4 miles    
Events Fog , Rain , Snow    
T = Trace of Precipitation, MM = Missing Value Source: NWS Daily Summary

Daily Weather History Graph

Daily Weather History Graph

Search for Another Location

Airport:

Trip Planner

Search our weather history database for the weather conditions in past years. The results will help you decide how hot, cold, wet, or windy it might be!

Date:

Astronomy

Oct. 29, 2011 Rise Set
Actual Time 7:22 AM EDT 5:55 PM EDT
Civil Twilight 6:53 AM EDT 6:24 PM EDT
Nautical Twilight 6:21 AM EDT 6:56 PM EDT
Astronomical Twilight 5:49 AM EDT 7:28 PM EDT
Moon 10:42 AM EDT (10/29) 8:15 PM EDT (10/29)
Length of Visible Light 11h 30m
Length of Day
10h 33m
Waxing Crescent, 11% of the Moon is Illuminated
Oct 29
Waxing Crescent
Nov 2
First Quarter
Nov 10
Full
Nov 18
Last Quarter
Nov 25
New

Hourly Weather History & Observations

Time (EDT) Temp. Windchill Dew Point Humidity Pressure Visibility Wind Dir Wind Speed Gust Speed Precip Events Conditions
12:51 AM 45.0 °F 39.7 °F 30.0 °F 56% 30.24 in 10.0 mi NE 10.4 mph - N/A   Overcast
1:51 AM 45.0 °F 39.7 °F 30.0 °F 56% 30.22 in 10.0 mi ENE 10.4 mph - N/A   Overcast
2:51 AM 44.6 °F 40.2 °F 30.2 °F 57% 30.21 in 10.0 mi NNE 8.1 mph - N/A   Overcast
3:51 AM 45.0 °F 38.2 °F 28.0 °F 52% 30.19 in 10.0 mi ENE 15.0 mph - N/A   Overcast
4:51 AM 44.1 °F 38.6 °F 30.9 °F 60% 30.20 in 10.0 mi NNE 10.4 mph - N/A   Overcast
5:51 AM 44.1 °F 38.1 °F 34.0 °F 68% 30.18 in 10.0 mi NE 11.5 mph - 0.00 in Rain Light Rain
6:30 AM 44.6 °F 38.8 °F 33.8 °F 66% 30.16 in 10.0 mi ENE 11.5 mph - 0.00 in Rain Light Rain
6:51 AM 45.0 °F 37.9 °F 34.0 °F 65% 30.16 in 10.0 mi ENE 16.1 mph 21.9 mph 0.00 in   Overcast
7:25 AM 44.6 °F 36.4 °F 33.8 °F 66% 30.15 in 10.0 mi ENE 20.7 mph - 0.00 in Rain Light Rain
7:51 AM 44.1 °F 35.4 °F 34.0 °F 68% 30.14 in 10.0 mi ENE 21.9 mph - 0.00 in Rain Light Rain
8:03 AM 44.6 °F 36.4 °F 35.6 °F 71% 30.14 in 10.0 mi ENE 20.7 mph 26.5 mph 0.00 in Rain Light Rain
8:51 AM 42.1 °F 33.3 °F 35.1 °F 76% 30.14 in 8.0 mi East 19.6 mph - 0.03 in Rain Light Rain
9:51 AM 41.0 °F 32.2 °F 34.0 °F 76% 30.12 in 5.0 mi East 18.4 mph 29.9 mph 0.05 in Rain Light Rain
10:51 AM 39.0 °F 28.3 °F 34.0 °F 82% 30.09 in 4.0 mi ENE 24.2 mph 31.1 mph 0.06 in Rain Rain
11:14 AM 39.2 °F 28.7 °F 33.8 °F 81% 30.08 in 2.5 mi NE 23.0 mph 36.8 mph 0.05 in Rain Rain
11:21 AM 39.2 °F 29.3 °F 35.6 °F 87% 30.08 in 5.0 mi NE 20.7 mph 31.1 mph N/A Rain Light Rain
11:35 AM 35.6 °F 24.8 °F 30.2 °F 81% 30.07 in 2.0 mi NNE 19.6 mph 27.6 mph 0.10 in Snow Light Snow
11:38 AM 33.8 °F 23.5 °F 30.2 °F 87% 30.07 in 1.2 mi NNE 16.1 mph 27.6 mph 0.12 in Snow Light Snow
11:41 AM 33.8 °F 23.5 °F 30.2 °F 87% 30.07 in 0.8 mi NNE 16.1 mph - 0.14 in Snow Light Snow
11:51 AM 34.0 °F 25.0 °F 30.9 °F 89% 30.07 in 0.8 mi NNE 12.7 mph - 0.19 in Snow Light Snow
12:05 PM 33.8 °F 23.5 °F 30.2 °F 87% 30.05 in 0.2 mi North 16.1 mph - 0.06 in Fog , Snow Heavy Snow
12:48 PM 33.8 °F 23.5 °F 32.0 °F 93% 30.01 in 0.5 mi North 16.1 mph 24.2 mph N/A Fog , Snow Snow
12:51 PM 34.0 °F 24.6 °F 32.0 °F 92% 30.02 in 0.8 mi NNE 13.8 mph 23.0 mph 0.25 in Snow Light Snow
1:02 PM 33.8 °F 23.5 °F 32.0 °F 93% 30.02 in 0.8 mi North 16.1 mph 23.0 mph 0.03 in Snow Light Snow
1:48 PM 33.8 °F 22.2 °F 32.0 °F 93% 29.95 in 1.0 mi NNE 20.7 mph 26.5 mph 0.18 in Snow Light Snow
1:51 PM 34.0 °F 23.4 °F 32.0 °F 92% 29.94 in 1.2 mi NNE 17.3 mph 26.5 mph 0.19 in Snow Light Snow
1:57 PM 33.8 °F 22.8 °F 33.8 °F 100% 29.94 in 2.0 mi NNE 18.4 mph 26.5 mph 0.01 in Rain Rain
2:21 PM 33.8 °F 22.5 °F 32.0 °F 93% 29.91 in 0.2 mi NNE 19.6 mph 34.5 mph 0.08 in Snow Light Snow
2:42 PM 33.8 °F 22.8 °F 33.8 °F 100% 29.91 in 2.0 mi NNE 18.4 mph 28.8 mph 0.14 in Snow Light Snow
2:51 PM 34.0 °F 22.1 °F 32.0 °F 92% 29.89 in 1.8 mi NNE 21.9 mph 28.8 mph 0.16 in Snow Light Snow
3:51 PM 33.1 °F 23.9 °F 32.0 °F 96% 29.90 in 1.0 mi North 12.7 mph - 0.19 in Snow Light Snow
4:30 PM 33.8 °F 24.8 °F 33.8 °F 100% 29.87 in 1.5 mi NNE 12.7 mph 21.9 mph 0.08 in Snow Light Snow
4:51 PM 34.0 °F 24.2 °F 33.1 °F 96% 29.86 in 1.5 mi NNE 15.0 mph 21.9 mph 0.14 in Rain , Snow Light Rain
5:11 PM 33.8 °F 22.8 °F 33.8 °F 100% 29.85 in 2.0 mi NNE 18.4 mph 24.2 mph 0.05 in Rain , Snow Light Rain
5:23 PM 35.6 °F 24.5 °F 33.8 °F 93% 29.84 in 2.0 mi NNE 20.7 mph 31.1 mph 0.07 in Rain , Snow Rain
5:35 PM 35.6 °F 25.2 °F 33.8 °F 93% 29.85 in 2.5 mi North 18.4 mph 25.3 mph 0.09 in Rain Light Rain
5:51 PM 35.1 °F 23.8 °F 33.1 °F 92% 29.84 in 3.0 mi North 20.7 mph 27.6 mph 0.11 in Rain Light Rain
6:49 PM 35.6 °F 27.5 °F 33.8 °F 93% 29.87 in 5.0 mi North 11.5 mph 27.6 mph 0.07 in Rain , Snow Light Rain
6:51 PM 35.1 °F 25.2 °F 33.1 °F 92% 29.87 in 3.0 mi North 16.1 mph 27.6 mph 0.07 in Rain , Snow Light Rain
7:01 PM 35.6 °F 26.6 °F 33.8 °F 93% 29.87 in 3.0 mi North 13.8 mph 23.0 mph 0.02 in Rain , Snow Light Rain
7:13 PM 33.8 °F 24.3 °F 32.0 °F 93% 29.87 in 4.0 mi North 13.8 mph 21.9 mph 0.05 in Rain , Snow Light Rain
7:51 PM 35.1 °F 25.2 °F 33.1 °F 92% 29.86 in 3.0 mi North 16.1 mph - 0.11 in Rain , Snow Light Rain
8:18 PM 35.6 °F 25.2 °F 33.8 °F 93% 29.85 in 6.0 mi North 18.4 mph 27.6 mph 0.03 in Rain , Snow Light Rain
8:51 PM 36.0 °F 26.0 °F 33.1 °F 89% 29.86 in 5.0 mi North 17.3 mph 28.8 mph 0.04 in Rain , Snow Light Rain
9:51 PM 35.1 °F 24.1 °F 32.0 °F 89% 29.89 in 4.0 mi North 19.6 mph 25.3 mph 0.04 in Snow Light Snow
10:51 PM 35.1 °F 24.8 °F 32.0 °F 89% 29.89 in 4.0 mi NNW 17.3 mph 28.8 mph 0.03 in Snow Light Snow
11:33 PM 33.8 °F 23.2 °F 32.0 °F 93% 29.90 in 4.0 mi NNW 17.3 mph 25.3 mph 0.06 in Snow Light Snow
11:51 PM 34.0 °F 23.0 °F 32.0 °F 92% 29.89 in 4.0 mi NNW 18.4 mph 25.3 mph 0.08 in Snow Light Snow